TSC45 LJLJ-CYUL

Flight info

Callsign TSC45
Flight time N/A
Altitude 36000
Route GIMIX1Z GIMIX DCT ERKIR L608 ULNOK Y127 ADENU L608 DENUT L610 LAM L10 WAL M146 AGLIL UL28 PENIL M144 BAGSO DCT DOGAL/M077F360 DCT 5430N02000W 55N030W 55N040W 53N050W DCT RIKAL/N0450F360 DCT TAFFY DCT ATENE DCT KEBIG ROCKT3
Aircraft A21N/M-SBDE3FGHIJ1J4J7LORVWXYZ/SB2D1

Departure

Time 2026-04-23 05:37
Airport Ljubljana Jože Pučnik Airport (LJLJ)

Arrival

Time N/A
Airport Montreal / Pierre Elliott Trudeau International Airport (CYUL)
Time Latitude Longitude Altitude Speed Heading
2026-04-23 04:55 46.22673 14.46036 1259 ft 0 kts 127°
2026-04-23 05:29 46.22680 14.46025 1259 ft 4 kts 154°
2026-04-23 05:30 46.22695 14.46030 1264 ft 5 kts 217°
2026-04-23 05:30 46.22709 14.46045 1263 ft 2 kts 216°
2026-04-23 05:30 46.22708 14.46045 1263 ft 0 kts 216°
2026-04-23 05:30 46.22709 14.46045 1257 ft 0 kts 216°
2026-04-23 05:31 46.22706 14.46042 1257 ft 4 kts 216°
2026-04-23 05:32 46.22691 14.45986 1267 ft 8 kts 281°
2026-04-23 05:32 46.22721 14.45901 1266 ft 11 kts 268°
2026-04-23 05:32 46.22660 14.45816 1261 ft 13 kts 219°
2026-04-23 05:32 46.22580 14.45811 1261 ft 15 kts 128°
2026-04-23 05:33 46.22518 14.45935 1252 ft 16 kts 127°
2026-04-23 05:33 46.22450 14.46066 1252 ft 17 kts 127°
2026-04-23 05:33 46.22378 14.46206 1249 ft 18 kts 127°
2026-04-23 05:33 46.22301 14.46354 1238 ft 19 kts 127°
2026-04-23 05:34 46.22222 14.46507 1230 ft 19 kts 127°
2026-04-23 05:34 46.22139 14.46667 1226 ft 20 kts 127°
2026-04-23 05:34 46.22055 14.46833 1222 ft 21 kts 126°
2026-04-23 05:34 46.21966 14.47011 1219 ft 22 kts 126°
2026-04-23 05:35 46.21874 14.47195 1217 ft 23 kts 127°
2026-04-23 05:35 46.21774 14.47386 1214 ft 24 kts 127°
2026-04-23 05:35 46.21686 14.47559 1204 ft 10 kts 126°
2026-04-23 05:35 46.21634 14.47615 1201 ft 11 kts 198°
2026-04-23 05:36 46.21568 14.47544 1202 ft 13 kts 218°
2026-04-23 05:36 46.21503 14.47468 1203 ft 9 kts 241°
2026-04-23 05:36 46.21541 14.47380 1206 ft 14 kts 305°
2026-04-23 05:36 46.21726 14.47015 1220 ft 81 kts 307°
2026-04-23 05:37 46.22198 14.46086 1256 ft 143 kts 307°
2026-04-23 05:37 46.22855 14.44803 1540 ft 160 kts 306°
2026-04-23 05:37 46.23485 14.43528 2253 ft 157 kts 305°
2026-04-23 05:37 46.23997 14.42083 2697 ft 168 kts 286°
2026-04-23 05:38 46.24154 14.40345 3192 ft 182 kts 274°
2026-04-23 05:38 46.24243 14.38442 3749 ft 198 kts 276°
2026-04-23 05:38 46.24354 14.36341 4163 ft 220 kts 277°
2026-04-23 05:38 46.24481 14.34079 4855 ft 230 kts 277°
2026-04-23 05:39 46.24611 14.31751 5701 ft 235 kts 278°
2026-04-23 05:39 46.24746 14.29371 6552 ft 240 kts 278°
2026-04-23 05:39 46.24881 14.26956 7388 ft 243 kts 278°
2026-04-23 05:39 46.25019 14.24503 8197 ft 247 kts 279°
2026-04-23 05:40 46.25158 14.22008 9009 ft 250 kts 279°
2026-04-23 05:40 46.25300 14.19482 9776 ft 254 kts 279°
2026-04-23 05:40 46.25443 14.16928 10486 ft 255 kts 279°
2026-04-23 05:40 46.25586 14.14353 11143 ft 259 kts 280°
2026-04-23 05:41 46.25731 14.11745 11858 ft 263 kts 280°
2026-04-23 05:41 46.26068 14.09101 12248 ft 273 kts 300°
2026-04-23 05:41 46.27191 14.06851 12537 ft 285 kts 320°
2026-04-23 05:41 46.28679 14.04828 12803 ft 305 kts 322°
2026-04-23 05:42 46.30289 14.02664 13066 ft 326 kts 321°
2026-04-23 05:42 46.31971 14.00355 13497 ft 340 kts 320°
2026-04-23 05:42 46.33685 13.97955 14174 ft 345 kts 320°
2026-04-23 05:42 46.35415 13.95507 14860 ft 350 kts 320°
2026-04-23 05:43 46.37164 13.93034 15539 ft 355 kts 320°
2026-04-23 05:43 46.38942 13.90514 16215 ft 360 kts 320°
2026-04-23 05:43 46.40742 13.87956 16880 ft 364 kts 321°
2026-04-23 05:43 46.42556 13.85370 17503 ft 369 kts 321°
2026-04-23 05:44 46.44399 13.82738 18103 ft 374 kts 320°
2026-04-23 05:44 46.46269 13.80063 18704 ft 380 kts 320°
2026-04-23 05:44 46.48148 13.77369 19325 ft 382 kts 321°
2026-04-23 05:44 46.50055 13.74637 19892 ft 387 kts 321°
2026-04-23 05:45 46.51988 13.71856 20415 ft 392 kts 320°
2026-04-23 05:45 46.53841 13.68927 20951 ft 399 kts 318°
2026-04-23 05:45 46.55694 13.65898 21486 ft 403 kts 317°
2026-04-23 05:45 46.57556 13.62843 22006 ft 407 kts 318°
2026-04-23 05:46 46.59444 13.59750 22510 ft 410 kts 318°
2026-04-23 05:46 46.61351 13.56630 22989 ft 414 kts 318°
2026-04-23 05:46 46.63266 13.53493 23455 ft 417 kts 318°
2026-04-23 05:46 46.65201 13.50317 23907 ft 420 kts 318°
2026-04-23 05:47 46.67154 13.47112 24360 ft 425 kts 318°
2026-04-23 05:47 46.69123 13.43874 24804 ft 428 kts 317°
2026-04-23 05:47 46.71099 13.40623 25217 ft 431 kts 318°
2026-04-23 05:47 46.73097 13.37330 25620 ft 435 kts 317°
2026-04-23 05:48 46.75103 13.34017 26032 ft 438 kts 317°
2026-04-23 05:48 46.77131 13.30668 26415 ft 442 kts 317°
2026-04-23 05:48 46.79165 13.27298 26810 ft 445 kts 317°
2026-04-23 05:48 46.81220 13.23891 27177 ft 448 kts 317°
2026-04-23 05:49 46.83285 13.20464 27544 ft 450 kts 317°
2026-04-23 05:49 46.85354 13.17029 27933 ft 453 kts 317°
2026-04-23 05:49 46.87443 13.13558 28246 ft 456 kts 317°
2026-04-23 05:49 46.89548 13.10060 28588 ft 459 kts 317°
2026-04-23 05:50 46.91656 13.06550 28913 ft 462 kts 317°
2026-04-23 05:50 46.93784 13.02997 29267 ft 465 kts 317°
2026-04-23 05:50 46.95926 12.99417 29599 ft 468 kts 317°
2026-04-23 05:50 46.98070 12.95825 29897 ft 471 kts 317°
2026-04-23 05:51 46.99499 12.93432 30072 ft 472 kts 317°
2026-04-23 05:51 47.02406 12.88558 30420 ft 475 kts 317°
2026-04-23 05:51 47.03845 12.86138 30606 ft 476 kts 317°
2026-04-23 05:51 47.06009 12.82481 30981 ft 475 kts 316°
2026-04-23 05:52 47.08182 12.78821 31350 ft 475 kts 316°
2026-04-23 05:52 47.10350 12.75173 31671 ft 475 kts 317°
2026-04-23 05:52 47.12526 12.71509 32039 ft 475 kts 316°
2026-04-23 05:52 47.14693 12.67846 32398 ft 474 kts 316°
2026-04-23 05:53 47.16848 12.64195 32735 ft 473 kts 316°
2026-04-23 05:53 47.19008 12.60533 33011 ft 474 kts 316°
2026-04-23 05:53 47.21162 12.56876 33290 ft 474 kts 316°
2026-04-23 05:53 47.23323 12.53201 33560 ft 474 kts 316°
2026-04-23 05:54 47.25482 12.49520 33784 ft 475 kts 316°
2026-04-23 05:54 47.27644 12.45834 33991 ft 476 kts 316°
2026-04-23 05:54 47.29810 12.42139 34227 ft 476 kts 316°
2026-04-23 05:54 47.31968 12.38454 34442 ft 476 kts 316°
2026-04-23 05:55 47.34123 12.34765 34719 ft 475 kts 316°
2026-04-23 05:55 47.36280 12.31069 35014 ft 474 kts 316°
2026-04-23 05:55 47.38431 12.27375 35290 ft 473 kts 316°
2026-04-23 05:55 47.40575 12.23691 35529 ft 472 kts 316°
2026-04-23 05:56 47.42702 12.20029 35757 ft 470 kts 316°
2026-04-23 05:56 47.44831 12.16358 35954 ft 469 kts 315°
2026-04-23 05:56 47.46950 12.12702 36119 ft 470 kts 315°
2026-04-23 05:56 47.49077 12.09028 36327 ft 470 kts 315°
2026-04-23 05:57 47.51192 12.05342 36430 ft 470 kts 314°
2026-04-23 05:57 47.53043 12.01346 36427 ft 476 kts 303°
2026-04-23 05:57 47.54347 11.96816 36415 ft 482 kts 290°
2026-04-23 05:58 47.55801 11.87110 36415 ft 484 kts 283°
2026-04-23 05:58 47.57087 11.77334 36399 ft 484 kts 284°
2026-04-23 05:59 47.58414 11.67567 36412 ft 484 kts 284°
2026-04-23 05:59 47.59746 11.57799 36412 ft 483 kts 284°
2026-04-23 06:00 47.61082 11.48051 36416 ft 483 kts 284°
2026-04-23 06:00 47.62409 11.38298 36415 ft 482 kts 283°
2026-04-23 06:01 47.63612 11.28534 36400 ft 482 kts 283°
2026-04-23 06:01 47.64798 11.18762 36387 ft 481 kts 283°
2026-04-23 06:02 47.65968 11.09007 36657 ft 480 kts 282°
2026-04-23 06:02 47.66547 11.04146 36970 ft 475 kts 282°
2026-04-23 06:02 47.67114 10.99348 37263 ft 471 kts 282°
2026-04-23 06:02 47.67682 10.94569 37508 ft 469 kts 282°
2026-04-23 06:03 47.68246 10.89811 37721 ft 467 kts 282°
2026-04-23 06:03 47.68802 10.85088 37904 ft 465 kts 282°
2026-04-23 06:03 47.69356 10.80359 38069 ft 464 kts 282°
2026-04-23 06:03 47.69905 10.75658 38218 ft 463 kts 282°
2026-04-23 06:04 47.70456 10.70946 38350 ft 462 kts 282°
2026-04-23 06:04 47.71546 10.61539 38383 ft 461 kts 282°
2026-04-23 06:05 47.72619 10.52163 38363 ft 461 kts 282°
2026-04-23 06:05 47.73728 10.42730 38351 ft 465 kts 285°
2026-04-23 06:05 47.74687 10.38148 38353 ft 463 kts 296°
2026-04-23 06:06 47.76221 10.33981 38363 ft 459 kts 309°
2026-04-23 06:06 47.78288 10.30395 38369 ft 454 kts 321°
2026-04-23 06:06 47.80684 10.27363 38384 ft 453 kts 325°
2026-04-23 06:07 47.85618 10.21498 38378 ft 454 kts 326°
2026-04-23 06:07 47.90508 10.15548 38379 ft 454 kts 324°
2026-04-23 06:08 47.95368 10.09525 38380 ft 455 kts 324°
2026-04-23 06:08 48.00254 10.03511 38380 ft 455 kts 325°
2026-04-23 06:09 48.05155 9.97548 38381 ft 455 kts 325°
2026-04-23 06:09 48.10024 9.91511 38380 ft 455 kts 324°
2026-04-23 06:10 48.14886 9.85452 38380 ft 455 kts 324°
2026-04-23 06:10 48.19755 9.79405 38381 ft 455 kts 324°
2026-04-23 06:11 48.24594 9.73370 38380 ft 455 kts 324°
2026-04-23 06:11 48.29468 9.67316 38380 ft 455 kts 325°
2026-04-23 06:12 48.34351 9.61269 38378 ft 456 kts 324°
2026-04-23 06:12 48.41602 9.52004 38389 ft 456 kts 324°
2026-04-23 06:13 48.46436 9.45797 38393 ft 456 kts 324°
2026-04-23 06:13 48.51263 9.39588 38398 ft 456 kts 323°
2026-04-23 06:14 48.56098 9.33355 38397 ft 456 kts 323°
2026-04-23 06:14 48.60965 9.27188 38397 ft 454 kts 328°
2026-04-23 06:15 48.63633 9.24728 38404 ft 448 kts 339°
2026-04-23 06:15 48.66461 9.22778 38414 ft 446 kts 341°
2026-04-23 06:15 48.72159 9.19083 38407 ft 446 kts 341°
2026-04-23 06:16 48.77848 9.15338 38405 ft 446 kts 341°
2026-04-23 06:16 48.83544 9.11563 38406 ft 446 kts 341°
2026-04-23 06:17 48.89230 9.07773 38399 ft 447 kts 341°
2026-04-23 06:17 48.94888 9.03851 38415 ft 447 kts 340°
2026-04-23 06:18 49.00548 8.99903 38410 ft 448 kts 340°
2026-04-23 06:18 49.06223 8.95957 38403 ft 448 kts 340°
2026-04-23 06:19 49.11888 8.92005 38424 ft 448 kts 340°
2026-04-23 06:19 49.17555 8.88045 38424 ft 448 kts 340°
2026-04-23 06:20 49.23384 8.84640 38419 ft 444 kts 347°
2026-04-23 06:20 49.29249 8.81832 38428 ft 444 kts 347°
2026-04-23 06:21 49.35142 8.78977 38436 ft 445 kts 347°
2026-04-23 06:21 49.41036 8.76094 38439 ft 445 kts 347°
2026-04-23 06:22 49.46941 8.73200 38430 ft 445 kts 347°
2026-04-23 06:22 49.52846 8.70292 38437 ft 446 kts 347°
2026-04-23 06:23 49.58758 8.67374 38442 ft 446 kts 347°
2026-04-23 06:23 49.64671 8.64455 38440 ft 446 kts 347°
2026-04-23 06:24 49.70530 8.61269 38434 ft 451 kts 339°
2026-04-23 06:24 49.73206 8.58794 38432 ft 458 kts 327°
2026-04-23 06:24 49.75658 8.55518 38442 ft 462 kts 321°
2026-04-23 06:25 49.80308 8.48629 38433 ft 463 kts 320°
2026-04-23 06:25 49.84223 8.40636 38431 ft 472 kts 298°
2026-04-23 06:26 49.85350 8.35840 38431 ft 476 kts 284°
2026-04-23 06:26 49.85894 8.30795 38434 ft 476 kts 277°
2026-04-23 06:26 49.86607 8.20629 38430 ft 478 kts 277°
2026-04-23 06:27 49.87375 8.10389 38430 ft 478 kts 277°
2026-04-23 06:27 49.88164 8.00186 38427 ft 478 kts 277°
2026-04-23 06:28 49.88938 7.89965 38424 ft 477 kts 277°
2026-04-23 06:28 49.89706 7.79721 38420 ft 478 kts 277°
2026-04-23 06:29 49.90632 7.69469 38424 ft 476 kts 284°